{"data":{"norad_id":63413,"epoch":"2026-05-24T22:41:55.836960Z","epoch_age_seconds":82754,"freshness":"FRESH","line1":"1 63413U 25065Q   26144.94578515  .00010752  00000+0  39959-3 0  9998","line2":"2 63413  43.0053  36.2694 0001273 268.2138  91.8568 15.27587265 64507","mean_motion":15.27587265,"eccentricity":0.0001273,"inclination_deg":43.0053,"raan_deg":36.2694,"arg_perigee_deg":268.2138,"mean_anomaly_deg":91.8568,"bstar":0.00039959,"rev_number":6450,"period_min":94.266300393647,"perigee_km":482.15391588155,"apogee_km":483.90076832305,"semimajor_km":6861.1643421023,"source":"CELESTRAK","updated_at":"2026-05-25T13:38:19.971405Z"}}